Zurück zum Katalog

METEOR 2-11 DEB

AktivPO
NORAD 40710·DEBRIS·🇷🇺 Russia

Gestartet Jul 5, 1984 von Plesetsk Cosmodrome

Loading…

Nächste Überflüge (nächste 24 Stunden)

TLE

AktuellSource: Space-Track

Epoche: Sep 13, 2026, 09:03 UTC

1 40710U 84072M   26256.37733833  .00001431  00000-0  10035-2 0  9991
2 40710  82.5253 298.2707 0039710 138.4292 221.9907 13.97297300123448

Verfolge METEOR 2-11 DEB in Echtzeit mit AllMySat

Download on the App Store